TimeCDT,TemperatureF,Dew PointF,Humidity,Sea Level PressureIn,VisibilityMPH,Wind Direction,Wind SpeedMPH,Gust SpeedMPH,PrecipitationIn,Events,Conditions,WindDirDegrees,DateUTC
12:53 AM,72.0,69.1,91,30.04,10.0,Calm,Calm,-,N/A,,Clear,0,2013-08-24 05:53:00
1:53 AM,73.0,69.1,87,30.04,10.0,Calm,Calm,-,N/A,,Clear,0,2013-08-24 06:53:00
2:53 AM,72.0,69.1,91,30.04,10.0,Calm,Calm,-,N/A,,Clear,0,2013-08-24 07:53:00
3:53 AM,71.1,68.0,90,30.04,8.0,Calm,Calm,-,N/A,,Clear,0,2013-08-24 08:53:00
4:53 AM,71.1,68.0,90,30.05,10.0,Calm,Calm,-,N/A,,Clear,0,2013-08-24 09:53:00
5:53 AM,71.1,68.0,90,30.07,10.0,Calm,Calm,-,N/A,,Clear,0,2013-08-24 10:53:00
6:53 AM,72.0,68.0,87,30.10,9.0,Calm,Calm,-,N/A,,Partly Cloudy,0,2013-08-24 11:53:00
7:53 AM,75.0,70.0,84,30.12,10.0,Calm,Calm,-,N/A,,Partly Cloudy,0,2013-08-24 12:53:00
8:53 AM,79.0,71.1,77,30.12,10.0,Calm,Calm,-,N/A,,Partly Cloudy,0,2013-08-24 13:53:00
9:53 AM,84.0,71.1,65,30.13,10.0,Calm,Calm,-,N/A,,Partly Cloudy,0,2013-08-24 14:53:00
10:53 AM,86.0,72.0,63,30.13,10.0,Calm,Calm,-,N/A,,Scattered Clouds,0,2013-08-24 15:53:00
11:15 AM,87.8,73.4,62,30.14,10.0,ESE,3.5,-,N/A,,Mostly Cloudy,110,2013-08-24 16:15:00
11:37 AM,87.8,71.6,58,30.14,10.0,Variable,3.5,-,N/A,,Scattered Clouds,0,2013-08-24 16:37:00
11:53 AM,88.0,72.0,59,30.12,10.0,ESE,6.9,-,N/A,,Partly Cloudy,110,2013-08-24 16:53:00
12:53 PM,88.0,71.1,57,30.12,10.0,East,3.5,-,N/A,,Partly Cloudy,90,2013-08-24 17:53:00
1:53 PM,89.1,72.0,57,30.11,10.0,ENE,6.9,-,N/A,,Mostly Cloudy,70,2013-08-24 18:53:00
2:53 PM,90.0,70.0,52,30.08,10.0,Variable,4.6,-,N/A,,Partly Cloudy,0,2013-08-24 19:53:00
3:53 PM,87.1,71.1,59,30.08,10.0,ESE,6.9,-,N/A,,Mostly Cloudy,110,2013-08-24 20:53:00
4:53 PM,84.0,73.0,69,30.08,10.0,South,3.5,-,N/A,,Mostly Cloudy,180,2013-08-24 21:53:00
5:53 PM,84.9,73.0,67,30.08,10.0,Calm,Calm,-,N/A,,Scattered Clouds,0,2013-08-24 22:53:00
6:53 PM,81.0,73.0,77,30.10,10.0,Calm,Calm,-,N/A,,Clear,0,2013-08-24 23:53:00
7:53 PM,79.0,73.9,84,30.11,10.0,Calm,Calm,-,N/A,,Clear,0,2013-08-25 00:53:00
8:53 PM,78.1,73.0,84,30.12,10.0,Calm,Calm,-,N/A,,Clear,0,2013-08-25 01:53:00
9:53 PM,78.1,72.0,81,30.15,9.0,East,6.9,-,0.00,Rain,Light Rain,90,2013-08-25 02:53:00
10:53 PM,75.9,71.1,85,30.17,9.0,ESE,6.9,-,0.00,,Scattered Clouds,110,2013-08-25 03:53:00
11:44 PM,75.2,69.8,83,30.20,8.0,East,6.9,-,N/A,,Mostly Cloudy,90,2013-08-25 04:44:00
11:53 PM,75.9,70.0,82,30.18,8.0,East,6.9,-,N/A,,Overcast,90,2013-08-25 04:53:00